Вернуться в каталог

TJS-13

АктивенНаукаHEO
NORAD 62188·PAYLOAD·🇨🇳 China

Запущен Dec 3, 2024 с Xichang Satellite Launch Center

Loading…

Ближайшие Пролёты (ближайшие 24 часа)

TLE

СвежийSource: Space-Track

Эпоха: Sep 11, 2026, 03:14 UTC

1 62188U 24227A   26254.13520644  .00000491  00000-0  00000-0 0  9990
2 62188  63.8321  28.5942 6976807 269.4161  17.4901  2.00616877 12970

Отслеживайте TJS-13 в реальном времени с AllMySat

Download on the App Store